{"data":{"norad_id":58627,"intl_designator":"2023-203K","name":"STARLINK-31065","alt_names":[],"object_type":"PAYLOAD","status":"ACTIVE","operator":null,"country":"US","launch_date":"2023-12-23","launch_site_code":"AFETR","launch_vehicle":null,"mission":null,"orbit_class":"UNKNOWN","rcs_meters":null,"size_class":null,"mass_kg":null,"dimensions":null,"purposes":["comms"],"wikipedia_slug":null,"has_3d_model":false,"image_url":null,"decayed_at":null,"tle_current":{"epoch":"2026-05-24T22:15:51.787872Z","epoch_age_seconds":85253,"freshness":"FRESH","line1":"1 58627U 23203K   26144.92768273  .00002029  00000+0  83240-4 0  9992","line2":"2 58627  43.0019 356.3232 0001137 269.5220  90.5502 15.27582709135229","mean_motion":15.27582709,"eccentricity":0.0001137,"inclination_deg":43.0019,"raan_deg":356.3232,"arg_perigee_deg":269.522,"mean_anomaly_deg":90.5502,"bstar":8.324e-5,"rev_number":13522,"period_min":94.266581541936,"perigee_km":482.26086839427,"apogee_km":483.8211002679,"semimajor_km":6861.1779843311,"source":"CELESTRAK","updated_at":"2026-05-25T13:38:18.706755Z"}}}